Preview of NWS' New Version of Forecast
This preview is not operational and should not be used for support decisions.

Regional Weather Roundup (RWR)

Issued by National Weather Service (NWS)

                            
000
ASUS44 KMEG 211900
RWRTN 
TENNESSEE HOURLY STATE WEATHER ROUNDUP
NATIONAL WEATHER SERVICE MEMPHIS TN
200 PM CDT SAT SEP 21 2019

TNZ002-004-019-021-049-052-054-088>092-212000-
WEST TENNESSEE
  
CITY           SKY/WX    TMP DP  RH WIND       PRES   REMARKS
MEMPHIS INTL   FAIR      89  59  36 S12G18    30.16F                  
NWS MEMPHIS      N/A     91 N/A N/A MISG        N/A                   
JACKSON        FAIR      89  59  36 SW13G18   30.19F                  
DYERSBURG      FAIR      89  59  36 S10       30.17F                  
$$

TNZ008-025-027-028-033-062-065-066-212000-
NORTH MIDDLE TENNESSEE
  
CITY           SKY/WX    TMP DP  RH WIND       PRES   REMARKS
NASHVILLE      FAIR      91  52  26 S8        30.21F                  
CLARKSVILLE    FAIR      89  55  31 SW8       30.18F                  
SMYRNA         FAIR      89  54  30 SE8       30.21F                  
CROSSVILLE     FAIR      82  55  39 VRB6      30.30F                  
$$

TNZ061-075-076-078-094-096-097-212000-
SOUTH MIDDLE TENNESSEE
  
CITY           SKY/WX    TMP DP  RH WIND       PRES   REMARKS
$$

TNZ017-018-042-046-047-212000-
NORTHEAST TENNESSEE
  
CITY           SKY/WX    TMP DP  RH WIND       PRES   REMARKS
TRI CITIES     FAIR      84  59  42 CALM      30.28F                  
$$

TNZ012-013-036-069-073-074-212000-
CENTRAL EAST TENNESSEE
  
CITY           SKY/WX    TMP DP  RH WIND       PRES   REMARKS
KNOXVILLE      FAIR      86  55  34 VRB3      30.24F                  
OAK RIDGE      FAIR      86  58  38 SE5       30.27F                  
$$

TNZ083-085-099-212000-
SOUTHEAST TENNESSEE
  
CITY           SKY/WX    TMP DP  RH WIND       PRES   REMARKS
CHATTANOOGA    FAIR      86  55  34 VRB3      30.25F                  
$$

SKY/WX REPORTED AS FAIR MEANS FEW OR NO CLOUDS BELOW
12 THOUSAND FEET.